TUI6MB LGIR-EDDF

Flight info

Callsign TUI6MB
Flight time 3h 2m
Altitude 36000
Route EPALO M749 DIRMI UL613 KOR DCT XANIS DCT DIMIS DCT UNDER DCT PETAK DCT GLOMY DCT ELTIB DCT TUPUS DCT GORPA DCT BERTA DCT INGID DCT INROM DCT SIMBA DCT AKINI T161 DEBHI DEBHI1B
Aircraft B738/M-SDE2E3FGHIRWXY/LB1

Departure

Time 2026-04-18 06:49
Airport Heraklion International Nikos Kazantzakis Airport (LGIR)

Arrival

Time 2026-04-18 09:51
Airport Frankfurt Main Airport (EDDF)
Time Latitude Longitude Altitude Speed Heading
2026-04-18 06:08 35.33759 25.17548 87 ft 0 kts 95°
2026-04-18 06:42 35.33758 25.17549 87 ft 2 kts 95°
2026-04-18 06:42 35.33761 25.17592 89 ft 6 kts 71°
2026-04-18 06:42 35.33795 25.17618 89 ft 6 kts
2026-04-18 06:42 35.33837 25.17621 90 ft 6 kts
2026-04-18 06:43 35.33879 25.17628 91 ft 6 kts 19°
2026-04-18 06:43 35.33900 25.17670 92 ft 6 kts 92°
2026-04-18 06:43 35.33896 25.17736 93 ft 10 kts 96°
2026-04-18 06:43 35.33890 25.17834 95 ft 13 kts 91°
2026-04-18 06:44 35.33880 25.17966 100 ft 18 kts 95°
2026-04-18 06:44 35.33868 25.18127 101 ft 19 kts 95°
2026-04-18 06:44 35.33857 25.18285 104 ft 18 kts 94°
2026-04-18 06:44 35.33848 25.18439 106 ft 18 kts 94°
2026-04-18 06:45 35.33836 25.18587 109 ft 17 kts 96°
2026-04-18 06:45 35.33828 25.18730 112 ft 17 kts 95°
2026-04-18 06:45 35.33820 25.18850 115 ft 6 kts 94°
2026-04-18 06:45 35.33819 25.18862 115 ft 0 kts 94°
2026-04-18 06:46 35.33819 25.18864 115 ft 1 kts 94°
2026-04-18 06:47 35.33816 25.18902 116 ft 7 kts 93°
2026-04-18 06:47 35.33838 25.18968 116 ft 10 kts 53°
2026-04-18 06:47 35.33888 25.19000 116 ft 6 kts
2026-04-18 06:47 35.33906 25.18990 113 ft 3 kts 301°
2026-04-18 06:48 35.33910 25.18968 114 ft 2 kts 271°
2026-04-18 06:48 35.33910 25.18963 114 ft 0 kts 273°
2026-04-18 06:48 35.33911 25.18953 115 ft 7 kts 275°
2026-04-18 06:48 35.33936 25.18604 107 ft 76 kts 275°
2026-04-18 06:49 35.33997 25.17709 96 ft 133 kts 275°
2026-04-18 06:49 35.34057 25.16512 551 ft 144 kts 279°
2026-04-18 06:49 35.34136 25.15285 1292 ft 144 kts 287°
2026-04-18 06:49 35.34542 25.14146 1923 ft 150 kts 306°
2026-04-18 06:50 35.35367 25.13342 2607 ft 161 kts 336°
2026-04-18 06:50 35.36518 25.13086 3311 ft 164 kts 347°
2026-04-18 06:50 35.37605 25.12882 4225 ft 159 kts 349°
2026-04-18 06:50 35.38728 25.12683 4808 ft 167 kts 344°
2026-04-18 06:51 35.39852 25.12301 5422 ft 170 kts 345°
2026-04-18 06:51 35.41008 25.11933 6025 ft 174 kts 346°
2026-04-18 06:51 35.42178 25.11560 6550 ft 174 kts 345°
2026-04-18 06:51 35.43368 25.11120 6935 ft 184 kts 343°
2026-04-18 06:52 35.44602 25.10632 7404 ft 185 kts 342°
2026-04-18 06:52 35.45824 25.10117 7910 ft 189 kts 342°
2026-04-18 06:52 35.47103 25.09588 8294 ft 198 kts 343°
2026-04-18 06:52 35.48454 25.09097 8707 ft 206 kts 345°
2026-04-18 06:53 35.49856 25.08592 9163 ft 214 kts 344°
2026-04-18 06:53 35.51345 25.08077 9506 ft 231 kts 345°
2026-04-18 06:53 35.52977 25.07575 9722 ft 254 kts 346°
2026-04-18 06:53 35.54750 25.07035 10077 ft 271 kts 346°
2026-04-18 06:54 35.56660 25.06419 10216 ft 296 kts 345°
2026-04-18 06:54 35.58717 25.05720 10388 ft 318 kts 344°
2026-04-18 06:54 35.60900 25.04948 10697 ft 333 kts 343°
2026-04-18 06:54 35.63141 25.04136 11310 ft 338 kts 343°
2026-04-18 06:55 35.65410 25.03303 11946 ft 343 kts 343°
2026-04-18 06:55 35.67700 25.02457 12632 ft 346 kts 343°
2026-04-18 06:55 35.70029 25.01595 13198 ft 352 kts 343°
2026-04-18 06:55 35.72380 25.00699 13841 ft 356 kts 341°
2026-04-18 06:56 35.74714 24.99651 14507 ft 356 kts 339°
2026-04-18 06:56 35.77029 24.98544 15129 ft 359 kts 338°
2026-04-18 06:56 35.79367 24.97414 15748 ft 361 kts 338°
2026-04-18 06:56 35.81731 24.96276 16225 ft 369 kts 338°
2026-04-18 06:57 35.84133 24.95129 16814 ft 371 kts 338°
2026-04-18 06:57 35.88991 24.92828 17973 ft 378 kts 338°
2026-04-18 06:57 35.91456 24.91665 18483 ft 382 kts 338°
2026-04-18 06:58 35.93943 24.90491 18985 ft 384 kts 338°
2026-04-18 06:58 35.96419 24.89321 19416 ft 389 kts 338°
2026-04-18 06:58 35.98979 24.88112 19984 ft 388 kts 338°
2026-04-18 06:58 36.01483 24.86928 20440 ft 392 kts 338°
2026-04-18 06:59 36.04023 24.85708 20969 ft 393 kts 336°
2026-04-18 06:59 36.06441 24.84145 21468 ft 394 kts 327°
2026-04-18 06:59 36.08624 24.82111 22089 ft 392 kts 321°
2026-04-18 06:59 36.10755 24.79971 22361 ft 400 kts 321°
2026-04-18 07:00 36.12934 24.77778 22707 ft 405 kts 321°
2026-04-18 07:00 36.15123 24.75582 23161 ft 408 kts 321°
2026-04-18 07:00 36.17345 24.73360 23481 ft 413 kts 321°
2026-04-18 07:00 36.19582 24.71129 23936 ft 411 kts 321°
2026-04-18 07:01 36.21806 24.68915 24400 ft 411 kts 321°
2026-04-18 07:01 36.24048 24.66684 24699 ft 415 kts 321°
2026-04-18 07:01 36.25543 24.65196 24890 ft 417 kts 321°
2026-04-18 07:01 36.27799 24.62949 25343 ft 416 kts 321°
2026-04-18 07:02 36.30052 24.60704 25830 ft 415 kts 321°
2026-04-18 07:02 36.32305 24.58456 26145 ft 417 kts 321°
2026-04-18 07:02 36.34580 24.56184 26321 ft 423 kts 321°
2026-04-18 07:02 36.36882 24.53884 26632 ft 426 kts 321°
2026-04-18 07:03 36.39197 24.51568 26913 ft 428 kts 321°
2026-04-18 07:03 36.41505 24.49259 27441 ft 425 kts 321°
2026-04-18 07:03 36.43810 24.46950 27669 ft 429 kts 321°
2026-04-18 07:03 36.46158 24.44596 27748 ft 436 kts 321°
2026-04-18 07:04 36.48529 24.42219 27981 ft 440 kts 321°
2026-04-18 07:04 36.50908 24.39831 28374 ft 439 kts 321°
2026-04-18 07:04 36.53290 24.37439 28759 ft 437 kts 320°
2026-04-18 07:04 36.55624 24.35093 29606 ft 427 kts 320°
2026-04-18 07:05 36.57935 24.32769 29941 ft 429 kts 320°
2026-04-18 07:05 36.60259 24.30427 30222 ft 429 kts 320°
2026-04-18 07:05 36.62577 24.28091 30492 ft 430 kts 320°
2026-04-18 07:05 36.64904 24.25742 30741 ft 431 kts 320°
2026-04-18 07:06 36.67232 24.23391 31050 ft 430 kts 320°
2026-04-18 07:06 36.69556 24.21043 31319 ft 431 kts 320°
2026-04-18 07:06 36.74249 24.16295 31854 ft 431 kts 319°
2026-04-18 07:07 36.76553 24.13962 32392 ft 425 kts 319°
2026-04-18 07:07 36.78856 24.11626 32522 ft 429 kts 320°
2026-04-18 07:07 36.83552 24.06858 32664 ft 439 kts 320°
2026-04-18 07:08 36.85890 24.04483 33425 ft 425 kts 319°
2026-04-18 07:08 36.88154 24.02183 34114 ft 416 kts 319°
2026-04-18 07:08 36.90396 23.99902 34288 ft 418 kts 319°
2026-04-18 07:08 36.92661 23.97593 34337 ft 422 kts 319°
2026-04-18 07:09 36.94943 23.95267 34490 ft 423 kts 318°
2026-04-18 07:09 36.97220 23.92948 34731 ft 422 kts 319°
2026-04-18 07:09 37.01803 23.88275 34952 ft 426 kts 318°
2026-04-18 07:10 37.04093 23.85938 35212 ft 425 kts 319°
2026-04-18 07:10 37.06397 23.83584 35246 ft 429 kts 319°
2026-04-18 07:10 37.08697 23.81231 35627 ft 423 kts 318°
2026-04-18 07:10 37.10971 23.78903 35870 ft 423 kts 319°
2026-04-18 07:11 37.15556 23.74201 35882 ft 429 kts 319°
2026-04-18 07:11 37.20174 23.69459 35896 ft 435 kts 319°
2026-04-18 07:12 37.24882 23.64616 35894 ft 440 kts 319°
2026-04-18 07:12 37.29583 23.59775 35877 ft 433 kts 319°
2026-04-18 07:13 37.34203 23.55010 35891 ft 428 kts 319°
2026-04-18 07:13 37.38837 23.50220 35913 ft 428 kts 319°
2026-04-18 07:14 37.43436 23.45458 35908 ft 428 kts 319°
2026-04-18 07:14 37.48004 23.40720 35906 ft 428 kts 319°
2026-04-18 07:15 37.52602 23.35944 35903 ft 429 kts 319°
2026-04-18 07:15 37.57202 23.31157 35907 ft 429 kts 319°
2026-04-18 07:16 37.61801 23.26365 35908 ft 429 kts 319°
2026-04-18 07:16 37.66401 23.21563 35915 ft 429 kts 319°
2026-04-18 07:17 37.71000 23.16754 35922 ft 430 kts 319°
2026-04-18 07:17 37.75603 23.11933 35915 ft 430 kts 319°
2026-04-18 07:18 37.80206 23.07103 35924 ft 430 kts 319°
2026-04-18 07:18 37.84814 23.02260 35933 ft 431 kts 319°
2026-04-18 07:19 37.89420 22.97411 35930 ft 431 kts 319°
2026-04-18 07:19 37.94020 22.92544 35934 ft 431 kts 318°
2026-04-18 07:20 37.98467 22.87458 35933 ft 431 kts 316°
2026-04-18 07:20 38.02860 22.82294 35936 ft 430 kts 316°
2026-04-18 07:21 38.07262 22.77147 35931 ft 430 kts 316°
2026-04-18 07:21 38.11668 22.72018 35937 ft 429 kts 317°
2026-04-18 07:22 38.16050 22.66943 35941 ft 429 kts 317°
2026-04-18 07:22 38.20465 22.61845 35939 ft 428 kts 317°
2026-04-18 07:23 38.24801 22.56658 35961 ft 427 kts 314°
2026-04-18 07:23 38.29113 22.51460 35942 ft 427 kts 316°
2026-04-18 07:24 38.33539 22.46409 35941 ft 427 kts 316°
2026-04-18 07:24 38.37930 22.41328 35945 ft 426 kts 316°
2026-04-18 07:25 38.42289 22.36215 35945 ft 425 kts 316°
2026-04-18 07:25 38.46632 22.31097 35940 ft 425 kts 316°
2026-04-18 07:26 38.50970 22.25977 35949 ft 425 kts 316°
2026-04-18 07:26 38.55308 22.20852 35950 ft 425 kts 316°
2026-04-18 07:27 38.59739 22.15839 35945 ft 426 kts 319°
2026-04-18 07:27 38.64360 22.11096 35950 ft 427 kts 320°
2026-04-18 07:28 38.69001 22.06361 35952 ft 427 kts 320°
2026-04-18 07:28 38.73639 22.01611 35944 ft 427 kts 320°
2026-04-18 07:29 38.78225 21.96860 35952 ft 427 kts 320°
2026-04-18 07:29 38.82836 21.92066 35950 ft 427 kts 319°
2026-04-18 07:30 38.87439 21.87271 35950 ft 426 kts 319°
2026-04-18 07:30 38.92036 21.82474 35959 ft 425 kts 319°
2026-04-18 07:31 38.96614 21.77687 35955 ft 424 kts 319°
2026-04-18 07:31 39.01188 21.72900 35961 ft 424 kts 319°
2026-04-18 07:32 39.05751 21.68115 35950 ft 423 kts 319°
2026-04-18 07:32 39.10301 21.63335 35942 ft 422 kts 319°
2026-04-18 07:33 39.14841 21.58559 35969 ft 421 kts 319°
2026-04-18 07:33 39.19374 21.53780 35955 ft 420 kts 319°
2026-04-18 07:34 39.23900 21.48999 35943 ft 421 kts 319°
2026-04-18 07:34 39.28427 21.44210 35964 ft 421 kts 319°
2026-04-18 07:35 39.32960 21.39406 35938 ft 421 kts 319°
2026-04-18 07:35 39.37484 21.34606 35932 ft 421 kts 319°
2026-04-18 07:36 39.42002 21.29803 35970 ft 421 kts 319°
2026-04-18 07:36 39.46534 21.24975 35939 ft 422 kts 319°
2026-04-18 07:37 39.51027 21.20181 35955 ft 422 kts 319°
2026-04-18 07:37 39.55553 21.15343 35943 ft 422 kts 319°
2026-04-18 07:38 39.60089 21.10487 35961 ft 423 kts 319°
2026-04-18 07:38 39.64634 21.05612 35951 ft 424 kts 319°
2026-04-18 07:39 39.69185 21.00721 35942 ft 425 kts 319°
2026-04-18 07:39 39.73734 20.95824 35939 ft 424 kts 319°
2026-04-18 07:40 39.78274 20.90929 35940 ft 424 kts 319°
2026-04-18 07:40 39.82801 20.86039 35935 ft 422 kts 319°
2026-04-18 07:41 39.87310 20.81159 35956 ft 421 kts 319°
2026-04-18 07:41 39.91803 20.76289 35947 ft 419 kts 319°
2026-04-18 07:42 39.96275 20.71431 35934 ft 418 kts 319°
2026-04-18 07:42 40.00734 20.66580 35938 ft 417 kts 319°
2026-04-18 07:43 40.05176 20.61739 35936 ft 415 kts 319°
2026-04-18 07:43 40.09987 20.57595 35938 ft 416 kts 332°
2026-04-18 07:44 40.15201 20.54307 35943 ft 415 kts 332°
2026-04-18 07:44 40.20392 20.51036 35943 ft 414 kts 332°
2026-04-18 07:45 40.25548 20.47741 35952 ft 415 kts 332°
2026-04-18 07:45 40.30734 20.44404 35943 ft 415 kts 332°
2026-04-18 07:46 40.35921 20.41058 35966 ft 416 kts 332°
2026-04-18 07:46 40.41115 20.37700 35961 ft 417 kts 332°
2026-04-18 07:47 40.46318 20.34318 35959 ft 418 kts 332°
2026-04-18 07:47 40.51522 20.30939 35953 ft 418 kts 332°
2026-04-18 07:48 40.56735 20.27562 35952 ft 418 kts 332°
2026-04-18 07:48 40.61941 20.24191 35967 ft 417 kts 332°
2026-04-18 07:49 40.67147 20.20804 35959 ft 417 kts 332°
2026-04-18 07:49 40.72335 20.17405 35943 ft 416 kts 332°
2026-04-18 07:50 40.77514 20.14020 35954 ft 415 kts 332°
2026-04-18 07:50 40.81816 20.11204 35945 ft 415 kts 332°
2026-04-18 07:51 40.86985 20.07813 35955 ft 415 kts 332°
2026-04-18 07:51 40.92150 20.04418 35935 ft 414 kts 332°
2026-04-18 07:52 40.97308 20.01021 35941 ft 414 kts 332°
2026-04-18 07:52 41.02467 19.97619 35939 ft 414 kts 332°
2026-04-18 07:53 41.07589 19.94149 35939 ft 413 kts 327°
2026-04-18 07:53 41.12377 19.89983 35937 ft 412 kts 325°
2026-04-18 07:54 41.17104 19.85697 35944 ft 411 kts 325°
2026-04-18 07:54 41.21840 19.81439 35938 ft 412 kts 325°
2026-04-18 07:55 41.26488 19.77289 35931 ft 411 kts 326°
2026-04-18 07:55 41.31241 19.73052 35950 ft 411 kts 326°
2026-04-18 07:56 41.35968 19.68832 35943 ft 412 kts 326°
2026-04-18 07:56 41.40756 19.64549 35955 ft 412 kts 326°
2026-04-18 07:57 41.45480 19.60316 35954 ft 412 kts 326°
2026-04-18 07:57 41.50233 19.56049 35955 ft 412 kts 326°
2026-04-18 07:58 41.57361 19.49635 35975 ft 412 kts 326°
2026-04-18 07:59 41.62114 19.45347 35954 ft 412 kts 326°
2026-04-18 07:59 41.66860 19.41059 35964 ft 411 kts 326°
2026-04-18 08:00 41.71594 19.36773 35984 ft 411 kts 326°
2026-04-18 08:00 41.76329 19.32481 35988 ft 411 kts 326°
2026-04-18 08:01 41.81069 19.28207 35989 ft 411 kts 326°
2026-04-18 08:01 41.85836 19.23951 36002 ft 412 kts 326°
2026-04-18 08:02 41.90616 19.19676 36000 ft 413 kts 326°
2026-04-18 08:02 41.95404 19.15380 36001 ft 415 kts 326°
2026-04-18 08:03 42.00206 19.11061 35995 ft 416 kts 326°
2026-04-18 08:03 42.05015 19.06726 36008 ft 416 kts 327°
2026-04-18 08:04 42.09827 19.02380 35999 ft 416 kts 327°
2026-04-18 08:04 42.14634 18.98031 35995 ft 416 kts 327°
2026-04-18 08:05 42.19432 18.93683 35992 ft 415 kts 327°
2026-04-18 08:05 42.24216 18.89337 35993 ft 414 kts 327°
2026-04-18 08:06 42.28989 18.84995 35983 ft 413 kts 327°
2026-04-18 08:06 42.33745 18.80660 35979 ft 411 kts 327°
2026-04-18 08:07 42.38481 18.76335 35966 ft 410 kts 327°
2026-04-18 08:07 42.43194 18.72024 35989 ft 408 kts 327°
2026-04-18 08:08 42.47891 18.67718 35996 ft 407 kts 327°
2026-04-18 08:08 42.52562 18.63428 36000 ft 405 kts 327°
2026-04-18 08:09 42.57230 18.59133 35992 ft 404 kts 327°
2026-04-18 08:09 42.61880 18.54849 36002 ft 404 kts 327°
2026-04-18 08:10 42.66530 18.50556 36005 ft 404 kts 327°
2026-04-18 08:10 42.71187 18.46247 36002 ft 405 kts 327°
2026-04-18 08:11 42.75842 18.41933 35995 ft 405 kts 327°
2026-04-18 08:11 42.80498 18.37610 36009 ft 405 kts 327°
2026-04-18 08:12 42.85153 18.33280 36017 ft 405 kts 327°
2026-04-18 08:12 42.89804 18.28946 36027 ft 405 kts 327°
2026-04-18 08:13 42.94425 18.24631 36038 ft 405 kts 327°
2026-04-18 08:13 42.99077 18.20279 36040 ft 405 kts 327°
2026-04-18 08:14 43.03726 18.15923 36047 ft 406 kts 327°
2026-04-18 08:14 43.08381 18.11553 36051 ft 406 kts 327°
2026-04-18 08:15 43.13034 18.07176 36030 ft 406 kts 327°
2026-04-18 08:15 43.17688 18.02789 36044 ft 406 kts 328°
2026-04-18 08:16 43.22345 17.98392 36034 ft 407 kts 328°
2026-04-18 08:16 43.27007 17.93982 36021 ft 407 kts 328°
2026-04-18 08:17 43.31672 17.89561 36023 ft 407 kts 328°
2026-04-18 08:17 43.36337 17.85130 36032 ft 408 kts 328°
2026-04-18 08:18 43.41012 17.80682 36073 ft 410 kts 328°
2026-04-18 08:18 43.45696 17.76216 36085 ft 409 kts 327°
2026-04-18 08:19 43.50373 17.71749 36084 ft 409 kts 328°
2026-04-18 08:19 43.55053 17.67272 36100 ft 411 kts 328°
2026-04-18 08:20 43.59605 17.62460 36086 ft 412 kts 323°
2026-04-18 08:20 43.63996 17.57467 36097 ft 410 kts 324°
2026-04-18 08:21 43.68388 17.52467 36082 ft 408 kts 324°
2026-04-18 08:21 43.72768 17.47508 36088 ft 406 kts 324°
2026-04-18 08:22 43.77120 17.42587 36094 ft 403 kts 324°
2026-04-18 08:22 43.81447 17.37688 36088 ft 401 kts 324°
2026-04-18 08:23 43.85755 17.32803 36092 ft 400 kts 324°
2026-04-18 08:23 43.90052 17.27920 36094 ft 400 kts 324°
2026-04-18 08:24 43.94347 17.23030 36118 ft 400 kts 324°
2026-04-18 08:24 43.98655 17.18116 36101 ft 401 kts 324°
2026-04-18 08:25 44.02976 17.13176 36111 ft 403 kts 324°
2026-04-18 08:25 44.07316 17.08206 36111 ft 405 kts 324°
2026-04-18 08:26 44.11644 17.03239 36124 ft 406 kts 324°
2026-04-18 08:26 44.16034 16.98188 36122 ft 407 kts 324°
2026-04-18 08:27 44.20366 16.93196 36102 ft 407 kts 325°
2026-04-18 08:27 44.24728 16.88160 36115 ft 407 kts 325°
2026-04-18 08:28 44.29087 16.83118 36122 ft 407 kts 325°
2026-04-18 08:28 44.33560 16.78313 36128 ft 404 kts 328°
2026-04-18 08:29 44.38155 16.73807 36134 ft 403 kts 329°
2026-04-18 08:29 44.42745 16.69312 36111 ft 403 kts 329°
2026-04-18 08:30 44.47309 16.64793 36134 ft 402 kts 329°
2026-04-18 08:30 44.51858 16.60257 36146 ft 401 kts 329°
2026-04-18 08:31 44.56392 16.55720 36143 ft 400 kts 328°
2026-04-18 08:31 44.60913 16.51186 36153 ft 399 kts 328°
2026-04-18 08:32 44.65426 16.46654 36161 ft 399 kts 328°
2026-04-18 08:32 44.69947 16.42105 36150 ft 400 kts 329°
2026-04-18 08:33 44.74469 16.37544 36150 ft 401 kts 328°
2026-04-18 08:33 44.79006 16.32961 36154 ft 402 kts 328°
2026-04-18 08:34 44.83551 16.28359 36162 ft 403 kts 328°
2026-04-18 08:34 44.88110 16.23734 36162 ft 404 kts 328°
2026-04-18 08:35 44.92672 16.19096 36145 ft 404 kts 328°
2026-04-18 08:35 44.97232 16.14452 36168 ft 404 kts 328°
2026-04-18 08:36 45.01789 16.09801 36171 ft 404 kts 328°
2026-04-18 08:36 45.06314 16.05174 36176 ft 404 kts 328°
2026-04-18 08:37 45.10870 16.00506 36171 ft 404 kts 328°
2026-04-18 08:37 45.15418 15.95835 36171 ft 404 kts 328°
2026-04-18 08:38 45.19958 15.91165 36174 ft 403 kts 328°
2026-04-18 08:38 45.24514 15.86547 36180 ft 401 kts 329°
2026-04-18 08:39 45.29140 15.82124 36180 ft 401 kts 330°
2026-04-18 08:39 45.33771 15.77709 36196 ft 401 kts 329°
2026-04-18 08:40 45.37611 15.74020 36193 ft 401 kts 329°
2026-04-18 08:40 45.42228 15.69559 36182 ft 401 kts 329°
2026-04-18 08:41 45.46841 15.65088 36182 ft 401 kts 329°
2026-04-18 08:41 45.51458 15.60603 36195 ft 402 kts 329°
2026-04-18 08:42 45.56083 15.56101 36191 ft 403 kts 329°
2026-04-18 08:42 45.60714 15.51585 36194 ft 404 kts 329°
2026-04-18 08:43 45.65352 15.47053 36197 ft 404 kts 329°
2026-04-18 08:43 45.69997 15.42504 36195 ft 405 kts 329°
2026-04-18 08:44 45.74646 15.37943 36211 ft 405 kts 329°
2026-04-18 08:44 45.79275 15.33332 36213 ft 406 kts 327°
2026-04-18 08:45 45.83823 15.28498 36206 ft 407 kts 327°
2026-04-18 08:45 45.88356 15.23626 36204 ft 407 kts 327°
2026-04-18 08:46 45.92889 15.18771 36209 ft 406 kts 327°
2026-04-18 08:46 45.97419 15.13928 36204 ft 406 kts 327°
2026-04-18 08:47 46.01947 15.09082 36202 ft 406 kts 326°
2026-04-18 08:47 46.06479 15.04224 36202 ft 406 kts 326°
2026-04-18 08:48 46.11011 14.99353 36204 ft 406 kts 326°
2026-04-18 08:48 46.15544 14.94471 36196 ft 407 kts 326°
2026-04-18 08:49 46.20079 14.89577 36172 ft 407 kts 326°
2026-04-18 08:49 46.24609 14.84678 36181 ft 407 kts 326°
2026-04-18 08:50 46.29137 14.79770 36201 ft 407 kts 326°
2026-04-18 08:50 46.33665 14.74853 36201 ft 407 kts 326°
2026-04-18 08:51 46.38157 14.69961 36198 ft 407 kts 326°
2026-04-18 08:51 46.42685 14.65024 36205 ft 408 kts 326°
2026-04-18 08:52 46.47202 14.60055 36186 ft 408 kts 324°
2026-04-18 08:52 46.51695 14.54983 36205 ft 410 kts 324°
2026-04-18 08:53 46.56193 14.49879 36206 ft 411 kts 324°
2026-04-18 08:53 46.60710 14.44753 36221 ft 412 kts 324°
2026-04-18 08:54 46.65233 14.39616 36211 ft 413 kts 324°
2026-04-18 08:54 46.69757 14.34469 36221 ft 413 kts 324°
2026-04-18 08:55 46.74285 14.29305 36208 ft 413 kts 323°
2026-04-18 08:55 46.78806 14.24139 36207 ft 413 kts 323°
2026-04-18 08:56 46.83329 14.18960 36206 ft 413 kts 323°
2026-04-18 08:56 46.87852 14.13769 36193 ft 414 kts 323°
2026-04-18 08:57 46.94639 14.05957 36203 ft 414 kts 323°
2026-04-18 08:57 46.99162 14.00737 36192 ft 414 kts 323°
2026-04-18 08:58 47.03690 13.95499 36193 ft 415 kts 323°
2026-04-18 08:58 47.08222 13.90246 36198 ft 416 kts 323°
2026-04-18 08:59 47.12730 13.85008 36199 ft 416 kts 323°
2026-04-18 08:59 47.17267 13.79724 36195 ft 416 kts 322°
2026-04-18 09:00 47.21802 13.74434 36185 ft 416 kts 322°
2026-04-18 09:00 47.26356 13.69200 36189 ft 415 kts 326°
2026-04-18 09:01 47.31485 13.65349 36201 ft 414 kts 336°
2026-04-18 09:01 47.36777 13.61954 36195 ft 415 kts 336°
2026-04-18 09:02 47.42065 13.58526 36203 ft 415 kts 335°
2026-04-18 09:02 47.47351 13.55057 36201 ft 415 kts 335°
2026-04-18 09:03 47.52629 13.51572 36198 ft 416 kts 335°
2026-04-18 09:03 47.57912 13.48074 36178 ft 416 kts 335°
2026-04-18 09:04 47.63193 13.44569 36188 ft 416 kts 335°
2026-04-18 09:04 47.68486 13.41050 36197 ft 417 kts 335°
2026-04-18 09:05 47.73790 13.37515 36195 ft 418 kts 335°
2026-04-18 09:05 47.79102 13.33967 36194 ft 419 kts 335°
2026-04-18 09:06 47.84417 13.30409 36192 ft 419 kts 334°
2026-04-18 09:06 47.89742 13.26836 36201 ft 420 kts 334°
2026-04-18 09:07 47.95065 13.23256 36184 ft 420 kts 334°
2026-04-18 09:07 48.00390 13.19668 36198 ft 420 kts 334°
2026-04-18 09:08 48.05600 13.15733 36201 ft 419 kts 330°
2026-04-18 09:08 48.10681 13.11560 36198 ft 420 kts 330°
2026-04-18 09:09 48.15812 13.07393 36199 ft 420 kts 330°
2026-04-18 09:09 48.20951 13.03225 36196 ft 419 kts 327°
2026-04-18 09:10 48.25429 12.97713 36196 ft 417 kts 311°
2026-04-18 09:10 48.29257 12.91165 36195 ft 417 kts 310°
2026-04-18 09:11 48.33076 12.84592 36198 ft 418 kts 310°
2026-04-18 09:11 48.36916 12.78026 36208 ft 418 kts 311°
2026-04-18 09:12 48.40768 12.71454 36200 ft 419 kts 311°
2026-04-18 09:12 48.44624 12.64865 36198 ft 420 kts 310°
2026-04-18 09:13 48.48481 12.58260 36200 ft 420 kts 310°
2026-04-18 09:13 48.52334 12.51642 36198 ft 420 kts 310°
2026-04-18 09:14 48.56184 12.45013 36197 ft 420 kts 310°
2026-04-18 09:14 48.60028 12.38377 36195 ft 420 kts 310°
2026-04-18 09:15 48.63868 12.31732 36195 ft 419 kts 310°
2026-04-18 09:15 48.67700 12.25083 36187 ft 419 kts 310°
2026-04-18 09:16 48.71530 12.18424 36196 ft 419 kts 310°
2026-04-18 09:16 48.74634 12.11033 36206 ft 417 kts 292°
2026-04-18 09:17 48.76141 12.02572 36212 ft 417 kts 279°
2026-04-18 09:17 48.77022 11.93866 36206 ft 418 kts 279°
2026-04-18 09:18 48.77918 11.85146 36201 ft 419 kts 279°
2026-04-18 09:18 48.78842 11.76419 36209 ft 419 kts 279°
2026-04-18 09:19 48.79769 11.67677 36209 ft 420 kts 279°
2026-04-18 09:19 48.80686 11.58929 36141 ft 421 kts 279°
2026-04-18 09:20 48.81141 11.54539 35928 ft 422 kts 279°
2026-04-18 09:20 48.81594 11.50142 35543 ft 420 kts 279°
2026-04-18 09:20 48.82043 11.45780 35232 ft 418 kts 279°
2026-04-18 09:20 48.82488 11.41439 34913 ft 416 kts 278°
2026-04-18 09:21 48.82930 11.37114 34599 ft 414 kts 278°
2026-04-18 09:21 48.83369 11.32805 34290 ft 413 kts 278°
2026-04-18 09:21 48.83811 11.28499 33949 ft 415 kts 280°
2026-04-18 09:21 48.84625 11.24275 33586 ft 422 kts 293°
2026-04-18 09:22 48.86040 11.20338 33266 ft 428 kts 302°
2026-04-18 09:22 48.87940 11.16846 32908 ft 431 kts 314°
2026-04-18 09:22 48.90173 11.13799 32582 ft 432 kts 316°
2026-04-18 09:22 48.92430 11.10796 32246 ft 432 kts 316°
2026-04-18 09:23 48.94669 11.07744 31910 ft 432 kts 315°
2026-04-18 09:23 48.96886 11.04664 31580 ft 432 kts 315°
2026-04-18 09:23 48.99094 11.01564 31256 ft 432 kts 315°
2026-04-18 09:23 49.01304 10.98454 30941 ft 433 kts 315°
2026-04-18 09:24 49.03518 10.95339 30613 ft 434 kts 315°
2026-04-18 09:24 49.05742 10.92209 30226 ft 436 kts 315°
2026-04-18 09:24 49.07947 10.89105 29767 ft 438 kts 315°
2026-04-18 09:24 49.10219 10.85899 29286 ft 440 kts 315°
2026-04-18 09:25 49.12442 10.82757 28838 ft 442 kts 315°
2026-04-18 09:25 49.14698 10.79563 28376 ft 443 kts 315°
2026-04-18 09:25 49.16987 10.76319 27928 ft 443 kts 315°
2026-04-18 09:25 49.19215 10.73158 27493 ft 444 kts 315°
2026-04-18 09:26 49.21447 10.69896 27053 ft 443 kts 313°
2026-04-18 09:26 49.23594 10.66526 26609 ft 443 kts 312°
2026-04-18 09:26 49.25717 10.63105 26196 ft 443 kts 312°
2026-04-18 09:26 49.27839 10.59687 25776 ft 443 kts 312°
2026-04-18 09:27 49.29968 10.56287 25368 ft 443 kts 313°
2026-04-18 09:27 49.32107 10.52898 24964 ft 442 kts 313°
2026-04-18 09:27 49.34242 10.49522 24558 ft 440 kts 313°
2026-04-18 09:27 49.35675 10.47236 24294 ft 438 kts 311°
2026-04-18 09:28 49.37590 10.43644 24026 ft 431 kts 304°
2026-04-18 09:28 49.39274 10.39942 23806 ft 426 kts 303°
2026-04-18 09:28 49.40951 10.36153 23579 ft 422 kts 303°
2026-04-18 09:28 49.42581 10.32476 23373 ft 424 kts 303°
2026-04-18 09:29 49.44258 10.28729 23197 ft 427 kts 304°
2026-04-18 09:29 49.45948 10.24985 23001 ft 425 kts 304°
2026-04-18 09:29 49.47636 10.21262 22810 ft 423 kts 304°
2026-04-18 09:29 49.49318 10.17557 22596 ft 422 kts 304°
2026-04-18 09:30 49.51003 10.13843 22279 ft 424 kts 304°
2026-04-18 09:30 49.52686 10.10124 21964 ft 423 kts 304°
2026-04-18 09:30 49.54367 10.06404 21661 ft 422 kts 304°
2026-04-18 09:30 49.56038 10.02698 21351 ft 420 kts 304°
2026-04-18 09:31 49.57700 9.99008 21028 ft 418 kts 304°
2026-04-18 09:31 49.59354 9.95331 20646 ft 416 kts 304°
2026-04-18 09:31 49.60997 9.91671 20212 ft 413 kts 304°
2026-04-18 09:31 49.62614 9.88067 19766 ft 405 kts 304°
2026-04-18 09:32 49.64205 9.84514 19333 ft 400 kts 303°
2026-04-18 09:32 49.65778 9.80996 18908 ft 398 kts 303°
2026-04-18 09:32 49.67346 9.77484 18482 ft 396 kts 303°
2026-04-18 09:32 49.68905 9.73988 18003 ft 394 kts 303°
2026-04-18 09:33 49.70459 9.70498 17482 ft 394 kts 303°
2026-04-18 09:33 49.72009 9.67016 16953 ft 393 kts 303°
2026-04-18 09:33 49.73552 9.63543 16444 ft 391 kts 303°
2026-04-18 09:33 49.75087 9.60084 15945 ft 389 kts 303°
2026-04-18 09:34 49.76610 9.56644 15447 ft 386 kts 303°
2026-04-18 09:34 49.78115 9.53242 14947 ft 383 kts 303°
2026-04-18 09:34 49.79617 9.49843 14467 ft 380 kts 303°
2026-04-18 09:34 49.81091 9.46502 13995 ft 368 kts 303°
2026-04-18 09:35 49.82505 9.43298 13446 ft 354 kts 303°
2026-04-18 09:35 49.83868 9.40202 12915 ft 342 kts 303°
2026-04-18 09:35 49.85188 9.37200 12391 ft 332 kts 303°
2026-04-18 09:35 49.86379 9.34203 11916 ft 322 kts 292°
2026-04-18 09:36 49.87074 9.30969 11474 ft 312 kts 285°
2026-04-18 09:36 49.87657 9.27758 11023 ft 306 kts 284°
2026-04-18 09:36 49.88225 9.24622 10585 ft 300 kts 284°
2026-04-18 09:36 49.88796 9.21528 10168 ft 299 kts 285°
2026-04-18 09:37 49.89368 9.18465 10020 ft 293 kts 285°
2026-04-18 09:37 49.89945 9.15398 9312 ft 310 kts 284°
2026-04-18 09:37 49.90551 9.12194 9171 ft 302 kts 285°
2026-04-18 09:37 49.91133 9.09133 9128 ft 292 kts 285°
2026-04-18 09:38 49.91706 9.06118 9150 ft 285 kts 285°
2026-04-18 09:38 49.92251 9.03240 9162 ft 279 kts 285°
2026-04-18 09:38 49.92790 9.00391 9168 ft 272 kts 285°
2026-04-18 09:38 49.93324 8.97565 9163 ft 267 kts 285°
2026-04-18 09:39 49.93869 8.94855 9179 ft 268 kts 292°
2026-04-18 09:39 49.95007 8.92556 9182 ft 274 kts 322°
2026-04-18 09:39 49.96759 8.91396 9188 ft 278 kts 349°
2026-04-18 09:39 49.98697 8.91306 9179 ft 280 kts
2026-04-18 09:40 50.00642 8.91484 9104 ft 280 kts
2026-04-18 09:40 50.02437 8.92617 8977 ft 281 kts 38°
2026-04-18 09:40 50.03697 8.94903 8888 ft 280 kts 63°
2026-04-18 09:40 50.04455 8.97682 8810 ft 280 kts 71°
2026-04-18 09:41 50.05098 9.00544 8702 ft 281 kts 71°
2026-04-18 09:41 50.05741 9.03418 8584 ft 281 kts 71°
2026-04-18 09:41 50.06395 9.06283 8482 ft 281 kts 71°
2026-04-18 09:41 50.07052 9.09143 8386 ft 281 kts 71°
2026-04-18 09:42 50.07716 9.12002 8287 ft 281 kts 71°
2026-04-18 09:42 50.08392 9.14857 8175 ft 281 kts 66°
2026-04-18 09:42 50.09570 9.17231 8039 ft 279 kts 33°
2026-04-18 09:42 50.11348 9.18190 7835 ft 271 kts
2026-04-18 09:43 50.13193 9.17748 7498 ft 269 kts 336°
2026-04-18 09:43 50.14774 9.16222 7084 ft 270 kts 313°
2026-04-18 09:43 50.15813 9.13808 6642 ft 271 kts 285°
2026-04-18 09:43 50.15928 9.10920 6184 ft 267 kts 259°
2026-04-18 09:44 50.15580 9.08098 5730 ft 264 kts 258°
2026-04-18 09:44 50.15251 9.05290 5275 ft 261 kts 256°
2026-04-18 09:44 50.14659 9.02631 4847 ft 259 kts 246°
2026-04-18 09:44 50.13960 9.00033 4357 ft 260 kts 249°
2026-04-18 09:45 50.13328 8.97442 4083 ft 251 kts 250°
2026-04-18 09:45 50.12736 8.94969 4003 ft 235 kts 250°
2026-04-18 09:45 50.12187 8.92701 3977 ft 219 kts 250°
2026-04-18 09:45 50.11664 8.90539 3974 ft 202 kts 250°
2026-04-18 09:46 50.11189 8.88575 3979 ft 185 kts 250°
2026-04-18 09:46 50.10748 8.86746 3984 ft 176 kts 250°
2026-04-18 09:46 50.10311 8.84932 3825 ft 185 kts 250°
2026-04-18 09:46 50.09862 8.83070 3626 ft 183 kts 250°
2026-04-18 09:47 50.09424 8.81251 3428 ft 177 kts 251°
2026-04-18 09:47 50.08997 8.79473 3148 ft 177 kts 251°
2026-04-18 09:47 50.08576 8.77732 2956 ft 169 kts 251°
2026-04-18 09:47 50.08148 8.75949 2703 ft 170 kts 252°
2026-04-18 09:48 50.07751 8.74299 2474 ft 162 kts 251°
2026-04-18 09:48 50.07371 8.72715 2328 ft 152 kts 251°
2026-04-18 09:48 50.07006 8.71192 2093 ft 148 kts 251°
2026-04-18 09:48 50.06652 8.69707 1850 ft 147 kts 252°
2026-04-18 09:49 50.06303 8.68219 1623 ft 145 kts 250°
2026-04-18 09:49 50.05928 8.66786 1418 ft 142 kts 249°
2026-04-18 09:49 50.05585 8.65351 1216 ft 141 kts 254°
2026-04-18 09:49 50.05259 8.63938 1082 ft 138 kts 251°
2026-04-18 09:50 50.04920 8.62554 930 ft 137 kts 251°
2026-04-18 09:50 50.04591 8.61159 728 ft 138 kts 251°
2026-04-18 09:50 50.04267 8.59766 524 ft 135 kts 253°
2026-04-18 09:50 50.03947 8.58429 396 ft 128 kts 251°
2026-04-18 09:51 50.03654 8.57205 355 ft 105 kts 250°
2026-04-18 09:51 50.03457 8.56360 357 ft 61 kts 250°
2026-04-18 09:51 50.03375 8.56010 354 ft 0 kts 250°
2026-04-18 09:52 50.03335 8.55836 344 ft 38 kts 251°
2026-04-18 09:53 50.03316 8.55485 350 ft 25 kts 278°
2026-04-18 09:53 50.03335 8.55314 345 ft 14 kts 279°
2026-04-18 09:53 50.03359 8.55181 344 ft 12 kts 316°
2026-04-18 09:53 50.03427 8.55210 345 ft 11 kts 55°
2026-04-18 09:54 50.03457 8.55324 346 ft 12 kts 69°
2026-04-18 09:54 50.03496 8.55489 349 ft 20 kts 69°
2026-04-18 09:54 50.03555 8.55733 350 ft 26 kts 70°
2026-04-18 09:54 50.03615 8.55990 358 ft 24 kts 69°
2026-04-18 09:55 50.03673 8.56229 356 ft 23 kts 69°
2026-04-18 09:55 50.03728 8.56458 358 ft 22 kts 69°
2026-04-18 09:55 50.03781 8.56681 360 ft 22 kts 70°
2026-04-18 09:55 50.03833 8.56897 358 ft 21 kts 70°
2026-04-18 09:56 50.03885 8.57107 358 ft 20 kts 69°
2026-04-18 09:56 50.03931 8.57311 365 ft 20 kts 69°
2026-04-18 09:56 50.03978 8.57509 367 ft 19 kts 68°
2026-04-18 09:56 50.04024 8.57699 367 ft 19 kts 69°
2026-04-18 09:57 50.04068 8.57884 369 ft 18 kts 69°
2026-04-18 09:57 50.04112 8.58062 369 ft 17 kts 69°
2026-04-18 09:57 50.04153 8.58234 369 ft 17 kts 70°
2026-04-18 09:57 50.04193 8.58400 371 ft 16 kts 69°
2026-04-18 09:58 50.04236 8.58579 369 ft 19 kts 70°
2026-04-18 09:58 50.04282 8.58770 371 ft 19 kts 69°
2026-04-18 09:58 50.04326 8.58955 375 ft 18 kts 69°
2026-04-18 09:58 50.04369 8.59135 376 ft 18 kts 70°
2026-04-18 09:59 50.04412 8.59311 375 ft 17 kts 70°
2026-04-18 09:59 50.04462 8.59459 374 ft 14 kts 28°
2026-04-18 09:59 50.04554 8.59468 373 ft 13 kts 358°
2026-04-18 10:00 50.04729 8.59425 371 ft 13 kts 340°
2026-04-18 10:00 50.04808 8.59379 370 ft 12 kts 335°
2026-04-18 10:00 50.04844 8.59269 367 ft 12 kts 266°
2026-04-18 10:00 50.04826 8.59186 369 ft 2 kts 249°
2026-04-18 10:01 50.04820 8.59165 369 ft 2 kts 250°
2026-04-18 10:01 50.04816 8.59144 370 ft 2 kts 250°
2026-04-18 10:01 50.04811 8.59124 370 ft 2 kts 248°
2026-04-18 10:01 50.04809 8.59100 367 ft 3 kts 282°
2026-04-18 10:02 50.04832 8.59075 366 ft 4 kts 336°
2026-04-18 10:02 50.04862 8.59057 365 ft 3 kts 340°
2026-04-18 10:02 50.04874 8.59050 368 ft 0 kts 340°